This demonstration page uses our WeatherBlox Daily Observations layout. Learn more.

Left ArrowRight Arrow

39.92423, -83.80882

Hourly Observations for February 16, 2016

Temp ( °F °C ) Dew Point ( °F °C ) Humidity (%) Winds ( mph kmh ) Pressure ( in mb ) Visibility ( mi km ) Precip ( " mm )
12:56 am 00:56 Cloudy with Light Wintry Mix 32 undefined 32 undefined 100 100 N N/A 29.78 1008 1 1 N/A
1:49 am 01:49 Cloudy with Light Freezing Rain 32 undefined 32 undefined 100 100 NW 3 6 29.80 1009 1 1 N/A
1:56 am 01:56 Cloudy with Light Freezing Rain 33 0.5 33 0.5 100 100 NNW 3 6 29.75 1008 1 1 N/A
2:23 am 02:23 Cloudy with Light Freezing Rain 34 1 34 1 100 100 NW 3 6 29.77 1008 1 1 N/A
2:46 am 02:46 Cloudy with Light Freezing Rain 32 undefined 32 undefined 100 100 WNW 5 7 29.80 1009 1 2 0.01 0.25
2:56 am 02:56 Cloudy with Light Freezing Rain 32 undefined 32 undefined 100 100 NW 5 7 29.76 1008 1 2 0.01 0.25
3:04 am 03:04 Cloudy with Light Freezing Rain 32 undefined 32 undefined 100 100 NW 5 7 29.80 1009 1 2 N/A
3:19 am 03:19 Cloudy with Light Freezing Rain 32 undefined 32 undefined 100 100 NW 6 9 29.80 1009 2 2 0.01 0.25
3:26 am 03:26 Cloudy with Light Freezing Rain 32 undefined 32 undefined 100 100 NW 6 9 29.80 1009 1 2 0.01 0.25
3:36 am 03:36 Cloudy with Light Wintry Mix 34 1 34 1 100 100 NW 6 9 29.74 1007 1 1 0.01 0.25
3:48 am 03:48 Cloudy with Light Wintry Mix 32 undefined 32 undefined 100 100 NW 5 7 29.77 1008 1 1 0.01 0.25
3:56 am 03:56 Cloudy with Fog 33 0.5 33 0.5 100 100 NW 5 7 29.74 1007 1 1 0.01 0.25
4:05 am 04:05 Cloudy with Fog 32 undefined 32 undefined 100 100 NW 5 7 29.77 1008 0 0 N/A
4:41 am 04:41 Cloudy with Mist and Fog 34 1 34 1 100 100 NW 6 9 29.74 1007 1 1 N/A
4:48 am 04:48 Cloudy with Mist and Fog 32 undefined 32 undefined 100 100 NW 7 11 29.77 1008 1 2 N/A
4:56 am 04:56 Cloudy with Mist and Fog 32 undefined 32 undefined 100 100 NNW 7 11 29.75 1008 1 2 N/A
5:00 am 05:00 Cloudy with Mist and Fog 32 undefined 32 undefined 100 100 NW 6 9 29.77 1008 2 3 N/A
5:10 am 05:10 Cloudy with Mist and Fog 32 undefined 32 undefined 100 100 NW 8 13 29.80 1009 2 2 N/A
5:19 am 05:19 Cloudy with Mist and Fog 32 undefined 32 undefined 100 100 NW 8 13 29.77 1008 1 2 N/A
5:27 am 05:27 Cloudy with Mist and Fog 32 undefined 32 undefined 100 100 NW 8 13 29.77 1008 2 2 N/A
5:32 am 05:32 Cloudy with Mist and Fog 32 undefined 32 undefined 100 100 NW 8 13 29.77 1008 3 5 N/A
5:56 am 05:56 Cloudy with Mist and Fog 32 undefined 32 undefined 100 100 NW 9 15 29.75 1007 5 8 N/A
6:18 am 06:18 Cloudy with Mist and Fog 32 undefined 32 undefined 100 100 WNW 9 15 29.80 1009 3 5 N/A
6:39 am 06:39 Cloudy with Mist and Fog 32 undefined 32 undefined 100 100 NW 8 13 29.80 1009 3 4 N/A
6:46 am 06:46 Cloudy with Mist and Fog 32 undefined 32 undefined 100 100 WNW 9 15 29.80 1009 3 5 N/A
6:56 am 06:56 Cloudy with Mist and Fog 32 undefined 32 undefined 100 100 WNW 8 13 29.76 1008 2 3 N/A
7:24 am 07:24 Cloudy with Mist and Fog 30 -1 30 -1 100 100 NW 9 15 29.80 1009 3 5 N/A
7:36 am 07:36 Cloudy with Mist and Fog 30 -1 30 -1 100 100 WNW 8 13 29.80 1009 2 3 N/A
7:46 am 07:46 Cloudy with Mist and Fog 30 -1 30 -1 100 100 WNW 10 17 29.80 1009 2 2 N/A
7:56 am 07:56 Cloudy with Freezing Fog 31 -0.5 31 -0.5 100 100 W 10 17 29.78 1009 1 1 N/A
7:59 am 07:59 Cloudy with Freezing Fog 30 -1 30 -1 100 100 W 10 17 29.83 1010 0 0 N/A
8:28 am 08:28 Cloudy with Mist and Fog 30 -1 30 -1 100 100 NW 7 11 29.83 1010 1 1 N/A
8:56 am 08:56 Cloudy with Freezing Fog 31 -0.5 31 -0.5 100 100 WNW 8 13 29.82 1010 1 1 N/A
9:08 am 09:08 Cloudy with Mist and Fog 30 -1 30 -1 100 100 WNW 8 13 29.85 1011 1 1 N/A
9:18 am 09:18 Cloudy with Mist and Fog 30 -1 30 -1 100 100 W 8 13 29.85 1011 1 2 N/A
9:23 am 09:23 Cloudy with Mist and Fog 30 -1 30 -1 100 100 W 8 13 29.85 1011 1 2 N/A
9:32 am 09:32 Cloudy with Mist and Fog 30 -1 30 -1 100 100 WNW 8 13 29.85 1011 2 2 N/A
9:56 am 09:56 Cloudy with Mist and Fog 31 -0.5 31 -0.5 100 100 W 10 17 29.84 1011 2 3 N/A
10:14 am 10:14 Cloudy with Mist and Fog 30 -1 30 -1 100 100 WNW 9 15 29.85 1011 2 3 N/A
10:22 am 10:22 Cloudy with Mist and Fog 30 -1 30 -1 100 100 W 10 17 29.88 1012 3 4 N/A
10:30 am 10:30 Cloudy with Mist and Fog 30 -1 30 -1 100 100 W 9 15 29.88 1012 3 5 N/A
10:39 am 10:39 Cloudy with Mist and Fog 30 -1 30 -1 100 100 W 9 15 29.88 1012 3 4 N/A
10:41 am 10:41 Cloudy with Mist and Fog 30 -1 30 -1 100 100 W 9 15 29.88 1012 3 5 N/A
10:56 am 10:56 Cloudy with Mist and Fog 30 -1.1 30 -1.1 100 100 WNW 9 15 29.84 1011 4 6 N/A
11:56 am 11:56 Cloudy 31 -0.5 28 -2.2 88 88 W 8 13 29.85 1011 10 16 N/A
12:24 pm 12:24 Cloudy 30 -1 28 -2 93 93 W 8 13 29.85 1011 7 11 N/A
12:56 pm 12:56 Cloudy with Mist and Fog 31 -0.5 28 -2.2 88 88 WNW 8 13 29.82 1010 6 10 N/A
1:06 pm 13:06 Cloudy with Mist and Fog 30 -1 28 -2 93 93 WNW 7 11 29.85 1011 5 8 N/A
1:56 pm 13:56 Cloudy 31 -0.5 28 -2.2 88 88 WNW 7 11 29.80 1009 10 16 N/A
2:56 pm 14:56 Cloudy 31 -0.5 28 -2.2 88 88 WNW 7 11 29.80 1009 10 16 N/A
3:36 pm 15:36 Cloudy 30 -1 28 -2 93 93 WNW 8 13 29.85 1011 10 16 N/A
3:56 pm 15:56 Cloudy 31 -0.5 27 -2.7 85 85 WNW 9 15 29.82 1010 10 16 N/A
4:56 pm 16:56 Cloudy 31 -0.5 27 -2.7 85 85 WNW 6 9 29.85 1011 10 16 N/A
5:56 pm 17:56 Cloudy 31 -0.5 27 -2.7 85 85 WNW 7 11 29.87 1012 10 16 N/A
6:56 pm 18:56 Cloudy 30 -1.1 28 -2.2 92 92 NW 5 7 29.91 1013 10 16 N/A
7:56 pm 19:56 Cloudy 31 -0.5 28 -2.2 88 88 NW 3 6 29.93 1013 10 16 N/A
8:56 pm 20:56 Cloudy 30 -1.1 28 -2.2 92 92 N N/A 29.94 1014 10 16 N/A
9:56 pm 21:56 Cloudy 30 -1.1 28 -2.2 92 92 N N/A 29.96 1015 10 16 N/A
10:56 pm 22:56 Cloudy 30 -1.1 27 -2.7 89 89 WNW 5 7 29.97 1015 10 16 N/A
11:56 pm 23:56 Cloudy 30 -1.1 27 -2.7 89 89 WNW 5 7 29.97 1015 10 16 N/A

Powered by AerisWeather